Location: Sungai Laei
(2.6000°N, 113.7167°E)
Time: 10:46:53
(UTC+00:00)

Cosmos 2058 Rocket - Pass Details

Date: 22 May 2022
Orbit: 609 x 639 km, 82.5° (Epoch: 06 July)

Event Time Altitude Azimuth Distance (km) Brightness Sun altitude
Rises 20:28:07 0° 6° (N) 2,860 6.9 -25.4°
Reaches altitude 10° 20:30:23 10° 11° (NNE) 1,956 6.0 -24.9°
Maximum altitude 20:34:33 48° 86° (E) 793 3.9 -24.0°
Drops below altitude 10° 20:38:44 10° 161° (SSE) 1,960 5.6 -23.0°
Enters shadow 20:40:29 - 165° (SSE) 2,655 6.2 -22.6°
